Regional Weather Roundup
Issued by NWS

Home | Current Version | Previous Version | Graphics & Text | Print | Product List | Glossary On
Versions: 1 2 3 4 5 6 7 8 9 10 11 12 13 14 15 16 17 18 19 20 21 22 23 24 25 26 27 28 29 30 31 32 33 34 35 36 37 38 39 40 41 42 43 44 45 46 47 48 49 50
000
ASUS43 KMPX 190401
RWRMN
WEATHER ROUNDUP FOR MINNESOTA
NATIONAL WEATHER SERVICE TWIN CITIES/CHANHASSEN MN
1000 PM CST THU JAN 18 2018


NOTE: "FAIR" INDICATES FEW OR NO CLOUDS BELOW 12,000 FEET WITH NO
SIGNIFICANT WEATHER AND/OR OBSTRUCTIONS TO VISIBILITY. N/A MEANS
CURRENT SKY AND/OR WEATHER CONDITIONS ARE NOT AVAILABLE.

MNZ060>063-068>070-190500-
   Twin Cities Metro

CITY           SKY/WX    TMP DP  RH WIND       PRES   REMARKS
TWIN CITIES    CLOUDY    33  28  81 SW5       29.76S WCI  29
ST PAUL        FAIR      28  25  88 SE8       29.77F FOG     WCI  20
CRYSTAL        FAIR      30  24  78 S5        29.74S WCI  25
BLAINE         FAIR      34  28  80 S6        29.73F WCI  29
LAKEVILLE      FAIR      28  27  93 CALM      29.76S
EDEN PRAIRIE   FAIR      31  26  82 S7        29.74F WCI  24
SOUTH ST PAUL  FAIR      26  25  96 CALM      29.76S
LAKE ELMO      FAIR      28  27  93 S6        29.76S WCI  22
$$
MNZ001>005-007-008-013>017-022>024-027-028-190500-
   Northwest Minnesota

CITY           SKY/WX    TMP DP  RH WIND       PRES   REMARKS
BEMIDJI        FAIR      26  20  80 S5        29.60F WCI  20
HALLOCK        FAIR      25  21  86 S17       29.52F WCI  11
ROSEAU         FAIR      25  19  80 S14       29.52F WCI  13
WARROAD        FAIR      25  19  80 S7        29.54F WCI  17
CROOKSTON      FAIR      27  23  86 S15       29.58F WCI  15
FOSSTON        FAIR      27  21  80 S15       29.60F WCI  15
DETROIT LAKES  FAIR      30  27  86 S3        29.65F
MOORHEAD       FAIR      28  23  80 S10       29.65S WCI  19
PARK RAPIDS    FAIR      23  18  81 S5        29.63F WCI  17
MAHNOMEN       FAIR      27  23  85 S9        29.61F WCI  17
$$
MNZ006-009>011-018-025>026-190500-
   North Central Minnesota

CITY           SKY/WX    TMP DP  RH WIND       PRES   REMARKS
BAUDETTE       FAIR      25  22  88 S7        29.55F WCI  17
FLAG ISLAND    FAIR      21  19  93 SE8       29.53F WCI  12
INTL FALLS     FAIR      26  22  84 VRB3      29.60F
WASKISH        FAIR      27  25  93 S5        29.60F WCI  21
BIG FORK       FAIR      25  21  86 S3        29.62F
LONGVILLE      FAIR      19  18  93 S3        29.65F
GRAND RAPIDS   FAIR      24  23  96 S5        29.67S WCI  18
CRANE LAKE     FAIR      21  21 100 CALM      29.65F
ORR            FAIR      25  21  86 SE3       29.61F
COOK           CLOUDY    25  21  86 CALM      29.64F
WALKER         FAIR      27  20  74 S6        29.62F WCI  20
$$
MNZ012-019>021-037-190500-
   Northeast Minnesota

CITY           SKY/WX    TMP DP  RH WIND       PRES   REMARKS
DULUTH         FAIR      27  24  89 W7        29.66F WCI  19
ELY            FAIR      27  25  93 CALM      29.65S
HIBBING        FAIR      17  15  92 CALM      29.65S FOG
EVELETH          N/A     21  18  89 CALM      29.66S FOG
DULUTH HARBOR  FAIR      28  25  86 SW6       29.71S WCI  22
TWO HARBORS    FAIR      27  21  80 CALM      29.66F
GRAND MARAIS     N/A     33  26  75 VRB3      29.68
G MARAIS ARPRT CLOUDY    27  19  74 CALM      29.63F
$$
MNZ029>031-032-039>041-046>048-054>057-064-190500-
   West Central Minnesota

CITY           SKY/WX    TMP DP  RH WIND       PRES   REMARKS
FERGUS FALLS   FAIR      28  23  80 S9        29.67F WCI  20
WHEATON        CLOUDY    34  25  69 S6        29.69F WCI  29
MORRIS         CLOUDY    30  27  86 S3        29.68S
ALEXANDRIA     FAIR      28  23  81 S6        29.67F WCI  22
ELBOW LAKE     FAIR      27  24  91 S8        29.68F WCI  18
WADENA         FAIR      23  19  86 CALM      29.65F
GLENWOOD       FAIR      28  25  86 SW6       29.69F WCI  22
APPLETON       CLOUDY    36  27  69 S6        29.70S
BENSON         CLOUDY    30  27  86 SW6       29.71F WCI  24
ORTONVILLE     CLOUDY    34  25  69 S6        29.68F WCI  29
MADISON        CLOUDY    36  28  75 S5        29.70F
WILLMAR        FAIR      30  27  86 CALM      29.74S
$$
MNZ033>034-036-042>043-049>051-058-059-190500-
   Central Minnesota

CITY           SKY/WX    TMP DP  RH WIND       PRES   REMARKS
ST CLOUD       FAIR      24  22  91 S5        29.70F WCI  18
SAUK CENTRE      N/A     25  24  96 S5        29.69F WCI  19
PAYNESVILLE    FAIR      31  28  90 S6        29.71F WCI  25
AITKIN         FAIR      19  18  93 CALM      29.67R
PINE RIVER     FAIR      18  16  93 CALM      29.70F
BRAINERD       FAIR      25  19  78 SW5       29.68F WCI  19
STAPLES        FAIR      21  19  93 S3        29.67F
LONG PRAIRIE   FAIR      25  23  93 S3        29.68F
LITTLE FALLS     N/A    N/A N/A N/A CALM        N/A
LITCHFIELD     FAIR      30  27  86 CALM      29.73S
BUFFALO        FAIR      32  27  83 S6        29.74S WCI  26
MAPLE LAKE     FAIR      31  29  92 MISG      29.73S
HUTCHINSON     FAIR      32  29  88 SW5       29.75S WCI  27
$$
MNZ037-044-045-052-053-190500-
   East Central Minnesota

CITY           SKY/WX    TMP DP  RH WIND       PRES   REMARKS
PRINCETON      FAIR      27  25  93 CALM      29.71F
MORA           FAIR      18  14  86 CALM      29.72F
CAMBRIDGE      FAIR      28  23  80 S6        29.71F WCI  22
RUSH CITY      FAIR      26  22  87 S5        29.71F WCI  20
MOOSE LAKE     FAIR      25  23  93 CALM      29.69R
HINCKLEY       FAIR      23  21  93 CALM      29.71F
CLOQUET        FAIR      28  21  74 W5        29.68S WCI  23
MCGREGOR       FAIR      27  23  86 CALM      29.68S
$$
MNZ071>073-080-081-089-090-097-098-190500-
   Southwest Minnesota

CITY           SKY/WX    TMP DP  RH WIND       PRES   REMARKS
MONTEVIDEO     CLOUDY    34  27  75 SW6       29.71F WCI  29
GRANITE FALLS  CLOUDY    33  29  88 S9        29.74F WCI  25
CANBY          CLOUDY    39  28  64 SW6       29.72F
MARSHALL       CLOUDY    36  28  73 SW9       29.73F
REDWOOD FALLS  CLOUDY    31  27  85 SW10      29.74F WCI  22
OLIVIA         CLOUDY    30  28  93 SW6       29.74R WCI  24
PIPESTONE      CLOUDY    28  25  86 SW7       29.76S WCI  21
WINDOM         CLOUDY    34  18  51 S9        29.78R WCI  26
WORTHINGTON    CLOUDY    33  27  78 SW18      29.78S WCI  22
JACKSON        CLOUDY    32  27  80 SW9       29.79S WCI  24
SLAYTON        MOCLDY    33  28  81 SW20      29.75F WCI  22
$$
MNZ065>067-074>077-082>085-091>093-190500-
   South Central Minnesota

CITY           SKY/WX    TMP DP  RH WIND       PRES   REMARKS
MANKATO        FAIR      33  27  78 S7        29.77F WCI  27
NEW ULM        CLOUDY    32  27  80 SW8       29.76S WCI  25
ST JAMES       CLOUDY    34  28  80 S5        29.78S WCI  30
FAIRMONT       CLOUDY    33  26  75 SW14      29.79F WCI  23
FARIBAULT      FAIR      30  27  86 S8        29.78S WCI  23
OWATONNA       FAIR      28  25  86 S10       29.79S WCI  19
WASECA         FAIR      32  28  86 S9        29.79F WCI  24
ALBERT LEA     FAIR      28  21  74 SW5       29.80S WCI  23
$$
MNZ078>079-086>088-094>096-190500-
   Southeast Minnesota

CITY           SKY/WX    TMP DP  RH WIND       PRES   REMARKS
ROCHESTER      FAIR      27  22  81 SW15      29.79S WCI  15
RED WING       FAIR      27  21  80 SE3       29.79S
STANTON        FAIR      30  25  82 SW9       29.76F WCI  21
DODGE CENTER   FAIR      27  21  80 SW17      29.78S WCI  14
WINONA         FAIR      32  23  69 S7        29.81S WCI  26
AUSTIN         FAIR      28  21  74 SW12      29.81S WCI  18
PRESTON        FAIR      27  21  79 SW14      29.81S WCI  16
$$
ABBREVIATIONS USED IN REMARKS
   TC - TEMPERATURES IN CELSIUS
  WCI - WIND CHILL INDEX
   HX - HEAT INDEX
  VSB - VISIBILITY
$$




USA.gov is the U.S. government's official web portal to all federal, state and local government web resources and services.